Flag for Brazil Weather past 2 weeks in Niterói, Rio de Janeiro, Brazil

Now
90 °F

Sunny.


Feels Like: 96 °F
Forecast: 71 / 95 °F
Wind: 12 mph from South

Location: Rio De Janeiro Airport

Current Time: Dec 28, 2014 at 3:19:18 PM

Latest Report: Dec 28, 2014 at 3:00 PM


Visibility: 10 mi

Pressure: 29.77 "Hg

Humidity: 55%

Dew point: 72 °F

Location of NiteróiLocation

Historic Weather in Niterói — Graph

°F

Niterói temperature yesterday

Maximum temperature yesterday: 91 °F (at 4:00 PM)
Minimum temperature yesterday: 75 °F (at 6:00 AM)
Average temperature yesterday: 84 °F

Past Weeks' High & Low Weather Summary

 TemperatureHumidityPressure
High100 °F (Dec 21, 1:00 PM)94% (Dec 13, 8:00 PM)30.09 "Hg (Dec 13, 8:00 PM)
Low70 °F (Dec 16, 6:00 AM)39% (Dec 21, 3:00 PM)29.68 "Hg (Dec 18, 5:00 PM)
Average81 °F72%29.88 "Hg
* Reported Dec 13 2:00 PM — Dec 28 2:00 PM, Niterói, Weather by CustomWeather, © 2014

Note: Actual official high and low records may vary slightly from our data, if they occured in-between our weather recording intervals... More about our weather records

Advertising

Niterói weather history for previous 24 hours

 ConditionsComfort  
Time TempWeatherWind HumidityBarometerVisibility
2:00 PM
Dec 28
91 °FSunny.8 mph56%29.77 "Hg10 mi
1:00 PM90 °FSunny.6 mph63%29.80 "Hg10 mi
12:00 PM93 °FSunny.5 mph47%29.83 "Hg10 mi
11:00 AM88 °FSunny.6 mph55%29.86 "Hg10 mi
10:00 AM88 °FSunny.6 mph55%29.86 "Hg10 mi
9:00 AM82 °FSunny.6 mph70%29.86 "Hg10 mi
8:00 AM81 °FSunny.7 mph79%29.86 "Hg10 mi
7:00 AM75 °FSunny.7 mph89%29.86 "Hg10 mi
6:00 AM75 °FClear.5 mph83%29.86 "Hg10 mi
11:00 PM
Dec 27
81 °FClear.No wind74%29.92 "Hg10 mi
10:00 PM79 °FClear.2 mph84%29.89 "Hg10 mi
9:00 PM82 °FClear.6 mph70%29.89 "Hg10 mi
8:00 PM81 °FClear.9 mph74%29.89 "Hg10 mi
7:00 PM82 °FPassing clouds.14 mph70%29.89 "HgN/A
6:00 PM88 °FPassing clouds.15 mph59%29.86 "HgN/A
5:00 PM90 °FPassing clouds.17 mph55%29.89 "HgN/A
4:00 PM91 °FPassing clouds.16 mph49%29.89 "HgN/A
3:00 PM90 °FPassing clouds.15 mph55%29.92 "HgN/A
Weather by CustomWeather, © 2014

See weather overviewHow to use our weather pages